Location: Asheville, NC
(35.6000°N, 82.5500°W)
Time: 06:58:11
(UTC-05:00)

Vanguard 2 - Pass Details

Date: 10 February 2018
Orbit: 553 x 2939 km, 32.9° (Epoch: 18 February)

Event Time Altitude Azimuth Distance (km) Brightness Sun altitude
Rises 19:09:05 0° 214° (SW) 4,471 12.1 -13.1°
Reaches altitude 10° 19:13:42 10° 197° (SSW) 3,010 10.9 -14.0°
Maximum altitude 19:18:01 17° 159° (SSE) 2,110 9.6 -14.9°
Enters shadow 19:20:32 13° 127° (SE) 2,145 9.4 -15.4°
